CAPE
0 0 0 0 0 0 0 0 0 0 0 0 0 0 0 0 0 0 0 0 0 0 0 0 0 0 0 0 0 0 0 1 8 0 0 0 0 0 0 0 0 1 3
0 0 0 0 0 0 0 0 0 0 0 0 0 0 0 0 0 0 0 0 0 0 0 0 0 0 0 0 0 0 0 0 0 0 0 0 0 0 0 0 0 0 0
0 0 0 0 0 0 0 0 0 0 0 0 0 0 0 0 0 0 0 0 0 0 0 0 0 0 0 0 0 0 0 0 0 0 0 0 0 0 0 0 0 0 0
0 0 0 0 0 0 0 0 0 0 0 0 0 0 0 0 0 0 0 0 0 0 0 0 0 0 0 0 0 0 0 0 0 0 0 0 0 0 0 0 0 0 0
0 0 0 0 0 0 4 15 6 0 0 0 0 0 0 0 0 0 0 0 0 0 0 0 0 0 0 0 2 0 0 0 0 0 0 0 0 0 0 0 0 0 0
0 0 0 0 0 0 0 0 0 0 0 0 0 0 0 0 0 0 0 0 0 0 0 0 0 0 0 0 0 0 2 0 0 0 0 0 0 0 0 0 0 0 0
0 0 0 0 0 0 0 0 2 0 0 0 0 0 0 0 0 0 0 0 0 0 0 0 0 0 0 0 0 0 0 0 4 1 0 0 0 0 0 0 0 0 0
0 0 0 0 0 0 0 0 0 0 0 0 0 0 0 0 0 0 0 0 0 0 0 0 0 0 0 0 1 1 0 0 0 0 0 0 0 0 0 0 0 0 0
0 0 0 0 0 0 0 0 0 0 0 0 0 0 0 0 0 0 0 0 0 0 0 0 1 0 0 8 0 0 0 0 0 0 1 1 0 1 4 4 0 3 0
0 0 0 0 0 0 0 0 0 0 0 0 0 0 0 0 0 0 1 0 0 0 0 0 0 1 1 1 0 0 0 0 0 0 0 0 0 0 0 0 0 0 0
0 0 0 0 0 0 1 0 0 0 0 0 0 0 0 0 0 0 0 0 0 0 0 0 0 0 4 1 1 0 0 0 0 0 0 0 0 0 0 0 0 0 0
0 0 0 0 0 0 0 0 0 0 0 0 0 0 0 0 0 0 0 1 2 0 0 0 0 2 1 1 0 0 0 0 0 0 0 0 0 0 0 0 0 0 1
0 0 0 0 0 0 0 0 0 0 0 0 0 0 0 0 0 0 0 0 0 0 0 0 0 1 0 0 0 0 0 0 0 0 0 0 0 0 0 0 0 0 0
0 0 0 0 0 0 0 0 0 0 0 0 0 0 0 0 0 0 0 0 0 0 0 0 0 0 0 0 0 0 0 0 0 0 0 0 0 0 0 0 0 0 0
0 0 0 0 0 0 0 0 0 0 0 0 0 0 0 0 0 2 2 0 0 0 0 0 0 0 0 0 0 0 0 0 0 0 0 0 0 0 0 0 0 0 0
0 0 0 0 0 0 0 0 0 0 0 0 0 0 0 0 0 2 3 0 0 0 0 0 0 0 0 0 0 0 0 0 0 0 0 0 0 0 0 0 0 0 0
0 0 0 0 0 0 1 0 0 0 0 0 0 0 0 0 0 0 1 0 0 0 0 0 0 0 0 0 0 0 0 0 0 0 0 0 0 0 0 0 0 0 0
0 0 0 0 0 0 0 0 1 0 0 0 0 0 0 0 0 0 0 0 0 0 0 0 0 0 0 0 0 0 0 0 0 0 0 0 0 0 0 0 0 0 0
0 0 0 0 0 0 0 1 4 0 0 0 0 0 0 0 0 0 0 0 0 0 0 0 0 0 0 0 0 0 0 0 0 0 0 0 0 0 0 0 0 0 0
0 0 0 0 0 0 0 1 0 1 0 0 0 0 0 0 0 0 0 0 0 0 0 0 0 0 0 0 0 0 0 0 0 0 0 0 0 0 0 0 0 0 0
0 0 0 0 0 0 0 3 1 1 0 0 0 0 0 0 0 0 0 0 0 0 0 0 0 0 0 0 0 0 0 0 0 0 0 0 0 0 0 0 0 0 0
0 0 0 0 1 0 0 0 0 1 0 0 0 0 0 0 0 0 0 0 0 0 0 0 0 0 0 0 0 0 0 0 0 0 0 0 0 0 0 0 0 0 0
0 0 0 0 0 0 0 0 1 1 0 1 0 0 0 0 0 0 0 0 0 0 0 0 0 0 0 0 0 0 0 0 0 0 0 0 0 0 0 0 0 0 0
0 0 0 0 0 0 0 0 0 0 0 0 0 0 0 0 0 0 0 0 0 0 0 0 0 0 0 0 0 0 0 0 0 0 0 0 0 0 0 0 0 0 0
0 0 0 0 0 0 0 0 0 1 2 0 0 0 0 0 0 0 0 0 0 0 0 0 0 0 0 0 0 0 0 0 0 0 0 0 0 0 0 0 0 0 0
0 0 0 0 0 0 0 0 0 0 0 0 0 0 0 0 0 0 0 0 0 0 0 0 0 0 0 0 0 0 0 0 0 0 0 0 0 0 0 0 0 0 0
CIN
0 0 0 0 0 0 0 0 0 0 0 0 0 0 0 0 0 0 0 0 0 0 0 0 0 0 0 0 0 0 0 -2 0 0 0 0 0 0 0 0 0 -1 -1
0 0 0 0 0 0 0 0 0 0 0 0 0 0 0 0 0 0 0 0 0 0 0 0 0 0 0 0 0 0 0 0 0 0 0 0 0 0 0 0 0 0 0
0 0 0 0 0 0 0 0 0 0 0 0 0 0 0 0 0 0 0 0 0 0 0 0 0 0 0 0 0 0 0 0 0 0 0 0 0 0 0 0 0 0 0
0 0 0 0 0 0 0 0 0 0 0 0 0 0 0 0 0 0 0 0 0 0 0 0 0 0 0 0 0 0 0 0 0 0 0 0 0 0 0 0 0 0 0
0 0 0 0 0 0 -34 -34 -54 0 0 0 0 0 0 0 0 0 0 0 0 0 0 0 0 0 0 0 -2 0 0 0 0 0 0 0 0 0 0 0 0 0 0
0 0 0 0 0 0 0 0 0 0 0 0 0 0 0 0 0 0 0 0 0 0 0 0 0 0 0 0 0 0 0 -1 0 0 0 0 0 0 0 0 0 0 0
0 0 0 0 0 0 0 0 -2 0 0 0 0 0 0 0 0 0 0 0 0 0 0 0 0 0 0 0 0 0 0 -3 -3 -3 0 0 0 0 0 0 0 0 0
0 0 0 0 0 0 0 0 0 0 0 0 0 0 0 0 0 0 0 0 0 0 0 0 0 0 0 -1 -1 -2 0 0 0 0 0 0 0 0 0 0 0 0 0
0 0 0 0 0 0 0 0 0 0 0 0 0 0 0 0 0 0 0 0 0 0 0 0 -1 0 0 0 -1 0 0 0 0 0 -1 -1 -2 0 -2 -2 0 0 0
0 0 0 0 0 0 -1 0 0 0 0 0 0 0 0 0 0 0 -1 0 0 0 0 0 0 -1 0 0 0 0 0 0 0 0 0 0 0 0 0 0 0 0 0
0 0 0 0 0 0 -8 -6 0 0 0 0 0 0 0 0 0 0 0 -3 -1 0 0 0 0 0 0 0 0 0 0 0 0 0 0 0 0 0 0 0 0 0 0
0 0 0 0 0 0 0 0 0 0 0 0 0 0 0 0 0 0 0 -1 -1 0 0 0 0 -1 0 0 0 0 0 0 0 0 0 0 0 0 0 0 0 0 0
0 0 0 0 0 0 0 0 0 0 0 0 0 0 0 0 0 0 0 0 0 0 -1 0 0 0 0 0 0 0 0 0 0 0 0 0 0 0 0 0 0 0 0
0 0 0 0 0 0 0 0 0 0 0 0 0 0 0 0 0 0 0 0 0 0 0 0 0 0 0 0 0 0 0 0 0 0 0 0 0 0 0 0 0 0 0
0 0 0 0 0 0 0 0 0 0 0 0 0 0 0 0 0 -1 -2 0 -2 0 0 0 0 0 0 0 0 0 0 0 0 0 0 0 0 0 0 0 0 0 0
0 0 0 0 0 0 0 0 0 0 0 0 0 0 0 0 0 -1 -1 0 0 0 0 0 0 0 0 0 0 0 0 0 0 0 0 0 0 0 0 0 0 0 0
0 0 0 0 0 0 -7 0 -2 0 0 0 0 0 0 0 0 -1 0 0 0 0 0 0 0 0 0 0 0 0 0 0 0 0 0 0 0 0 0 0 0 0 0
0 0 0 0 0 0 -5 -5 -5 -1 0 0 0 0 0 0 0 0 0 0 0 0 0 0 0 0 0 0 0 0 0 0 0 0 0 0 0 0 0 0 0 0 0
0 0 0 0 0 0 -5 -7 -5 -5 0 0 0 0 0 0 0 0 0 0 0 0 0 0 0 0 0 0 0 0 0 0 0 0 0 0 0 0 0 0 0 0 0
0 0 0 0 -3 -2 -5 -5 -5 -9 -9 0 0 0 0 0 0 0 0 0 0 0 0 0 0 0 0 0 0 0 0 0 0 0 0 0 0 0 0 0 0 0 0
0 0 0 0 0 0 -9 -6 -7 -9 -6 0 -6 0 0 0 0 0 0 0 0 0 0 0 0 0 0 0 0 0 0 0 0 0 0 0 0 0 0 0 0 0 0
0 0 0 0 -1 0 0 -1 -14 -14 -5 0 0 0 0 0 0 0 0 0 0 0 0 0 0 0 0 0 0 0 0 0 0 0 0 0 0 0 0 0 0 0 0
0 0 0 0 0 -6 0 0 -19 -13 0 -12 -10 0 0 0 0 0 0 0 0 0 0 0 0 0 0 0 0 0 0 0 0 0 0 0 0 0 0 0 0 0 0
0 0 0 0 0 0 0 0 -4 -3 -8 0 0 0 0 0 0 0 0 0 0 0 0 0 0 0 0 0 0 0 0 0 0 0 0 0 0 0 0 0 0 0 0
0 0 0 0 0 0 0 0 0 -16 -12 0 0 0 0 0 0 0 0 0 0 0 0 0 0 0 0 0 0 0 0 0 0 0 0 0 0 0 0 0 0 0 0
0 0 0 0 0 0 0 0 0 0 -4 -12 0 0 0 0 0 0 0 0 0 0 0 0 0 0 0 0 0 0 0 0 0 0 0 0 0 0 0 0 0 0 0
Wind_Speed
27 30 31 34 34 32 32 32 32 32 32 31 33 30 32 32 32 34 34 31 30 30 30 32 34 36 37 38 38 38 37 34 38 38 33 31 33 34 34 31 29 31 31
30 32 34 33 34 35 34 34 33 30 29 30 30 28 30 29 30 31 30 28 29 30 33 36 38 39 41 40 38 38 38 38 38 42 35 36 36 35 35 36 35 32 33
33 36 34 36 38 38 38 34 32 31 31 30 27 27 28 28 28 28 28 28 30 32 35 37 39 40 41 40 39 38 37 37 35 38 41 36 36 35 36 35 33 33 31
36 38 40 42 43 41 39 34 33 32 34 30 26 27 27 29 29 28 29 31 33 35 36 37 37 37 38 39 38 37 35 36 36 38 39 37 35 35 35 35 36 35 35
38 38 40 41 41 40 38 38 36 33 31 30 25 26 27 26 26 29 31 33 35 36 35 35 34 36 38 36 35 36 33 35 36 36 38 37 38 36 36 33 35 35 38
37 39 39 41 43 43 42 40 35 31 29 23 24 23 24 25 27 32 32 33 34 35 35 34 33 36 37 37 36 36 36 37 35 34 34 36 38 37 35 35 35 34 35
36 38 40 43 45 45 44 38 31 28 22 20 22 21 25 27 29 33 34 31 32 33 32 33 32 29 33 33 34 35 35 36 35 34 35 36 40 37 36 36 36 34 34
38 39 41 43 44 42 38 32 25 20 17 16 19 24 28 30 33 33 34 33 32 32 29 24 24 24 22 24 30 32 31 31 31 32 32 34 37 37 36 35 35 34 34
39 41 41 42 41 36 30 25 21 20 18 19 23 26 29 31 33 35 33 33 32 29 25 24 22 23 21 17 27 35 29 32 31 32 32 31 32 32 32 31 32 32 37
39 39 39 37 35 30 25 21 21 19 18 21 24 27 29 31 34 33 33 32 30 26 26 25 23 21 18 12 7 7 31 34 33 32 32 33 34 35 36 36 35 38 38
37 38 37 34 31 27 23 22 19 18 19 23 25 27 28 31 33 34 34 31 28 26 25 23 20 16 21 22 17 3 10 19 24 26 26 26 27 27 28 29 30 31 32
36 36 34 32 29 27 23 20 19 19 22 25 26 26 27 30 32 34 34 32 31 24 21 18 17 20 17 16 19 23 25 21 19 19 20 20 22 23 24 25 26 27 23
34 33 31 28 26 26 22 21 20 21 24 25 27 27 28 29 30 32 31 31 30 22 21 22 24 20 16 14 9 5 13 14 14 15 16 17 18 18 19 21 23 25 25
31 31 28 26 26 24 21 20 21 22 25 26 27 27 27 29 30 30 29 31 33 26 26 24 21 18 15 12 5 4 10 12 12 13 15 15 16 16 16 16 17 17 19
28 28 27 24 24 22 19 20 22 22 23 24 24 24 27 29 28 30 32 32 33 31 29 27 29 25 8 1 6 10 13 12 12 13 13 13 13 13 13 13 13 14 15
27 25 24 23 23 20 20 22 23 22 24 23 20 21 22 22 25 29 30 31 33 32 29 29 30 29 24 16 16 16 15 14 13 12 12 12 13 13 13 13 13 13 13
24 23 20 20 22 21 20 22 23 23 24 24 24 18 20 23 27 27 29 30 30 32 30 29 29 28 27 24 21 18 18 16 16 14 14 14 15 15 15 15 15 15 15
22 20 18 16 19 22 20 20 20 22 23 24 24 21 20 23 25 26 27 28 29 29 30 29 28 27 27 26 25 22 21 21 19 18 17 16 16 16 17 17 17 17 17
21 20 20 13 17 20 18 18 17 20 21 22 22 21 19 21 22 24 24 25 27 28 26 29 28 27 27 26 25 25 24 23 22 20 19 19 18 18 18 18 18 18 19
19 20 19 15 16 19 17 16 15 17 20 20 19 20 20 20 22 23 22 21 22 25 25 25 28 27 26 26 25 25 24 24 23 21 21 21 20 20 19 19 19 20 20
19 18 18 19 20 19 17 14 12 13 17 16 18 17 16 18 20 20 20 19 19 21 24 23 25 26 26 26 25 25 25 24 24 23 22 22 22 21 21 21 20 20 20
15 16 17 16 18 18 17 16 13 9 12 14 16 17 15 15 17 18 17 17 17 18 20 21 23 23 25 26 25 25 25 25 25 24 23 23 23 22 22 22 21 21 21
14 13 14 13 13 15 15 13 10 10 9 12 14 16 15 14 15 15 15 15 16 17 18 19 20 22 22 25 25 25 26 26 26 25 24 24 23 23 22 22 21 21 22
13 11 11 10 10 11 12 11 13 12 10 9 12 16 16 14 13 13 13 14 14 15 17 17 18 19 20 23 23 24 26 26 25 24 24 24 24 23 23 22 22 21 22
12 11 11 10 10 10 10 11 11 12 12 13 12 16 16 15 13 13 12 13 13 14 15 16 17 17 18 20 21 24 26 26 25 24 24 23 24 23 23 22 22 22 22
11 11 11 12 12 13 12 11 12 13 12 12 12 13 15 15 14 13 12 12 12 13 14 15 16 16 17 17 18 22 25 25 25 24 24 23 23 23 22 22 22 22 22
Wind_Direction
343 339 337 336 336 334 332 331 329 328 330 332 335 336 337 340 341 342 342 341 340 337 333 329 323 320 317 316 313 309 306 304 299 300 302 303 302 302 301 302 298 291 284
340 338 336 337 337 334 331 329 329 329 329 327 331 332 337 340 344 345 347 345 342 337 332 327 322 320 316 315 313 309 304 301 298 294 298 297 298 297 296 293 290 291 284
340 340 341 338 336 334 332 329 329 330 335 334 333 335 338 340 343 346 346 345 340 337 332 328 325 322 317 315 312 309 306 302 298 294 292 296 295 295 294 293 290 286 286
347 343 341 340 338 336 337 336 332 329 326 325 328 334 335 335 339 346 344 341 337 335 333 331 328 325 321 316 312 310 308 304 300 295 292 291 292 292 292 290 284 283 278
346 346 345 345 344 341 338 335 333 331 328 326 329 334 336 339 343 344 342 339 337 336 335 333 332 329 324 319 315 311 309 304 300 297 291 289 286 286 286 288 284 284 273
347 345 345 345 345 343 340 336 333 333 334 336 337 343 346 347 345 343 342 340 340 339 337 336 334 331 327 320 315 309 302 298 297 296 294 288 283 282 284 283 284 283 277
345 345 345 345 344 343 341 342 345 348 352 350 349 355 351 348 347 345 344 345 343 342 341 339 340 341 335 326 317 311 304 297 293 294 292 287 278 279 279 278 279 279 277
346 346 345 344 344 345 349 354 2 12 14 16 8 358 353 352 350 351 350 350 348 347 349 351 348 347 349 344 328 317 311 303 298 292 292 288 277 275 274 276 277 279 277
346 345 345 345 346 349 355 5 13 10 17 15 6 0 358 357 356 353 355 354 353 354 355 355 354 353 353 354 341 310 314 301 302 294 290 287 276 272 273 278 277 277 270
345 345 346 347 350 354 356 358 1 9 14 11 6 3 3 360 358 358 359 358 358 2 3 3 4 4 3 356 341 350 312 293 289 286 279 271 267 265 264 265 269 262 261
345 345 348 350 352 355 358 2 5 12 13 7 6 6 5 3 2 1 2 3 5 8 10 14 17 17 17 8 13 1 230 245 253 260 263 260 258 259 260 258 256 259 260
347 349 351 353 357 359 4 8 14 9 3 2 5 6 8 7 6 5 6 7 3 14 18 23 27 27 31 37 34 315 318 291 257 246 247 249 254 254 253 254 261 268 285
348 351 354 356 357 359 2 2 3 2 359 1 2 4 7 8 8 7 11 11 6 18 23 25 26 35 44 51 59 262 278 274 261 256 253 254 257 262 262 260 255 245 226
349 352 354 353 352 354 0 360 359 359 358 0 3 6 7 8 9 9 13 11 2 15 17 23 33 42 50 58 78 270 279 272 262 255 254 255 256 257 250 248 236 246 243
350 352 354 353 353 356 0 359 359 0 1 2 5 8 8 8 11 9 8 11 360 360 6 13 12 12 62 38 290 297 303 292 281 275 266 257 251 250 250 266 270 274 261
347 351 353 354 353 355 355 352 354 357 359 4 10 13 14 15 14 10 8 12 5 355 1 358 359 342 322 302 303 302 306 304 294 278 269 263 261 265 275 281 289 296 309
347 349 353 355 355 352 351 349 351 356 359 2 6 16 17 16 13 13 9 10 13 359 354 351 347 343 331 325 314 308 305 303 301 297 289 283 282 283 291 295 300 307 317
351 351 352 356 356 354 351 351 354 355 356 359 5 13 18 16 15 15 12 10 11 15 358 349 345 340 335 333 327 318 315 315 312 307 308 304 299 294 297 303 308 311 311
352 353 351 357 357 355 355 354 357 356 357 359 3 11 18 18 19 19 18 15 10 11 17 351 345 342 337 333 331 329 327 323 321 318 315 315 313 309 306 307 310 316 316
351 351 351 354 352 352 355 356 358 357 357 360 5 8 16 19 18 18 22 24 19 11 15 14 352 341 336 335 335 330 328 327 325 321 317 316 315 316 317 317 317 316 316
351 356 354 348 346 347 349 353 356 360 0 4 6 11 18 18 18 20 21 24 24 19 11 13 10 353 337 332 331 328 325 324 325 323 319 318 317 315 317 319 322 325 324
352 355 355 355 353 351 350 351 354 358 2 3 5 11 18 21 19 20 22 24 24 22 17 14 12 10 351 332 328 325 322 319 320 319 318 317 317 317 317 318 320 325 327
351 357 1 4 4 359 356 357 359 358 359 2 4 6 12 15 18 22 26 27 24 22 20 17 14 10 7 346 333 327 321 318 318 318 316 314 315 316 316 319 321 324 326
345 348 351 356 359 357 357 357 354 354 354 356 360 3 6 13 19 23 26 28 28 25 20 19 16 14 11 359 346 333 326 322 319 317 317 317 313 316 317 319 320 323 324
342 340 339 339 343 346 347 350 348 348 348 350 354 356 0 5 13 16 21 23 26 25 21 19 16 14 13 7 358 340 330 326 323 320 318 318 318 318 319 321 321 321 323
340 337 335 335 335 338 340 337 339 339 339 340 342 348 354 358 3 9 14 18 20 21 20 18 15 13 12 11 7 350 335 329 325 323 321 321 319 318 319 321 322 323 324